Temperature
16 16 16 15 15 15 15 15 16 15 15 15 15 15 15 15 15 15 15 15 15 15 15 15 15 15 15 15 16 16 16 16 16 16 16 16 16 16 16 16 16 16 16
16 15 15 15 15 15 15 15 15 15 15 15 15 15 15 15 15 15 15 15 15 15 15 15 15 15 15 15 15 15 16 16 16 16 16 16 16 16 16 16 16 16 16
15 15 15 15 15 15 15 15 15 15 15 15 15 15 15 14 14 14 14 14 14 15 15 15 15 15 15 15 15 15 15 15 15 15 15 15 16 16 16 16 16 16 16
15 15 15 15 15 15 15 15 15 15 15 15 15 14 14 14 14 14 14 14 14 14 14 15 15 15 15 15 15 15 15 15 15 15 15 15 15 15 15 15 16 16 16
15 15 15 15 15 15 15 15 15 15 15 15 14 14 14 14 14 14 14 14 14 14 14 14 14 14 14 14 14 14 14 14 14 15 15 15 15 15 15 15 15 15 15
15 15 15 15 15 15 15 15 15 15 15 15 15 14 14 14 14 14 14 14 14 14 14 14 14 14 14 14 14 14 14 14 14 14 14 14 15 15 15 15 15 15 15
15 15 15 15 15 15 15 15 15 15 14 14 15 14 14 14 14 14 13 14 13 13 13 13 13 13 13 14 14 14 14 14 14 14 14 14 14 14 14 14 14 14 14
15 15 15 15 15 15 15 15 15 15 14 14 15 15 15 14 13 13 13 13 13 13 13 13 13 13 13 13 13 14 14 14 13 13 13 14 14 14 14 14 14 14 14
15 15 15 15 15 15 15 15 14 14 14 14 15 15 15 15 14 13 13 13 13 13 13 13 13 13 13 13 13 13 13 13 13 13 13 13 13 13 13 13 13 13 13
15 15 15 15 15 15 14 14 14 14 14 14 14 15 15 14 15 14 13 13 13 12 12 12 12 12 12 12 12 13 13 13 13 13 13 13 13 13 13 13 13 13 13
15 15 15 15 15 15 14 14 14 14 14 14 14 14 14 14 14 14 14 13 12 12 12 12 12 12 12 12 12 12 13 13 13 13 13 13 12 12 12 12 12 12 12
15 15 15 15 15 14 15 15 14 14 14 14 14 14 14 14 14 14 14 13 13 12 12 12 12 12 12 12 12 12 12 12 12 12 12 12 12 12 12 12 12 12 11
15 15 15 15 15 15 14 14 14 14 14 14 14 14 14 14 14 14 14 14 13 12 12 12 12 11 11 11 11 12 12 12 12 12 12 12 12 12 12 12 11 11 11
15 15 15 15 15 14 14 14 14 14 14 14 14 14 14 14 14 13 13 13 13 13 12 11 11 11 11 11 11 11 11 11 12 12 11 11 11 11 11 11 11 11 11
15 15 15 15 15 14 14 14 14 14 14 14 14 14 14 14 13 13 13 13 13 14 13 11 11 11 11 11 11 11 11 11 11 11 11 11 11 11 11 11 11 11 10
15 15 15 14 14 14 14 14 14 14 14 14 14 13 13 13 13 13 13 13 13 13 12 11 11 11 11 10 11 10 10 11 11 11 11 11 11 10 10 10 10 10 10
15 15 15 14 14 14 14 14 14 14 13 13 13 13 13 13 13 12 12 12 12 12 12 11 11 10 10 10 10 10 10 10 10 10 10 10 10 10 10 10 10 10 10
15 15 14 14 14 14 14 13 13 13 13 13 13 13 13 13 12 12 12 12 12 12 11 11 11 10 10 10 10 10 9 9 9 10 10 10 10 10 9 9 9 9 9
15 14 14 14 14 14 14 13 13 13 13 13 13 12 12 12 12 12 12 12 11 11 11 11 11 10 10 10 10 10 9 9 9 9 9 9 9 9 9 9 9 9 9
14 14 14 14 14 14 13 13 13 13 13 13 12 12 12 12 12 12 11 11 11 11 11 11 10 10 10 10 9 9 9 9 9 9 9 9 9 8 8 8 8 8 8
14 14 14 14 14 13 13 13 13 13 12 12 12 12 12 12 12 12 11 11 11 11 10 10 10 10 10 9 9 9 9 8 8 8 8 8 8 8 7 8 8 8 8
14 14 14 14 14 13 13 13 13 13 12 12 12 12 12 12 12 12 12 11 11 11 10 10 10 10 9 9 9 9 8 8 8 8 8 7 7 7 7 7 7 7 7
14 14 14 13 13 13 13 13 13 12 12 12 11 11 11 12 11 11 11 11 11 11 10 10 9 9 9 9 8 8 8 8 8 7 7 7 7 6 7 7 7 7 6
14 14 13 13 13 13 13 13 13 12 12 12 11 11 11 11 11 11 11 10 10 10 10 10 9 9 9 9 8 8 8 7 7 7 7 7 6 6 6 6 6 6 6
14 13 13 13 13 13 13 13 12 12 12 12 11 11 11 11 11 11 10 10 10 10 10 10 9 9 9 9 8 8 7 7 7 6 6 6 6 5 5 5 5 5 5
13 13 13 13 13 13 13 12 12 12 11 11 11 11 11 11 11 11 10 10 10 9 9 9 9 9 8 8 8 7 7 6 6 6 6 6 5 5 5 5 5 4 4
Wind_Speed
4 4 4 4 4 5 5 5 5 7 8 8 9 9 10 11 10 10 11 14 14 14 13 13 12 12 11 11 10 9 8 7 7 7 6 6 6 5 5 5 5 5 5
4 3 4 4 4 4 5 5 7 7 7 8 8 9 9 10 10 10 10 12 15 15 14 13 13 13 12 12 12 11 10 9 8 7 7 6 5 5 5 5 5 5 5
4 4 4 4 4 4 5 6 8 7 7 7 8 8 9 10 9 10 10 10 12 15 16 15 14 13 13 13 13 13 12 11 10 9 8 7 6 6 6 6 6 5 6
5 4 3 3 4 4 5 5 5 6 6 6 7 6 7 8 10 10 11 11 11 11 15 17 16 15 14 14 13 13 12 12 12 11 10 9 9 8 7 7 6 6 6
5 5 4 3 5 4 4 4 5 5 6 6 7 6 7 7 8 9 10 12 12 12 11 14 16 17 16 15 15 14 13 12 12 12 11 10 9 8 8 8 8 7 7
5 5 4 4 4 4 4 4 6 6 6 6 7 7 7 7 7 8 9 10 11 12 12 11 11 13 16 16 16 15 13 12 12 12 12 12 11 9 8 8 8 9 9
5 5 3 4 3 4 4 5 5 6 5 4 5 6 7 7 7 6 7 8 10 10 11 11 11 10 11 14 16 15 13 12 12 12 13 12 12 11 10 9 9 10 10
4 4 4 3 4 4 4 4 4 3 3 1 1 2 3 4 5 6 6 6 7 8 10 12 12 11 11 11 14 17 16 14 13 14 14 14 14 14 13 13 11 11 11
4 4 4 4 3 3 3 3 3 3 3 2 2 1 0 2 3 4 6 6 6 7 8 9 11 12 12 12 13 16 18 16 15 15 15 14 14 15 14 14 13 13 12
4 4 4 4 3 3 3 3 2 2 1 2 2 3 3 2 1 3 4 5 6 6 7 7 9 10 11 11 13 16 17 17 16 15 15 15 15 15 14 14 14 13 13
4 4 4 4 4 3 3 3 2 1 1 1 1 2 2 2 1 1 2 3 4 5 5 7 7 9 10 11 11 15 16 16 16 16 15 15 15 15 15 15 14 14 14
3 4 4 4 4 3 3 3 3 3 2 2 1 2 1 1 1 1 1 2 3 4 5 5 6 7 8 9 12 13 14 15 15 15 15 15 15 15 15 15 15 15 14
3 4 3 3 4 4 4 3 3 3 3 2 2 2 2 2 1 1 2 2 2 3 3 4 5 5 6 7 9 9 12 13 13 14 14 14 14 14 14 14 15 15 14
4 4 3 4 4 4 4 4 3 3 3 3 3 3 2 2 1 1 1 1 2 2 2 3 3 5 5 6 7 6 9 11 12 12 13 13 13 13 13 14 14 14 14
4 4 4 4 4 4 3 3 3 3 3 3 3 3 2 2 2 1 1 1 1 0 2 2 2 3 4 5 6 5 7 11 10 11 11 11 11 11 11 12 12 12 12
5 5 4 4 4 4 4 3 3 3 4 3 2 3 3 2 2 2 1 1 2 2 1 2 2 3 4 3 5 5 6 8 8 9 10 9 9 9 9 10 10 11 11
6 5 5 4 4 4 3 3 4 4 3 3 3 3 3 3 2 2 2 1 2 2 1 2 2 2 3 3 4 3 4 4 6 7 8 8 8 8 8 9 9 9 9
6 5 5 5 4 3 3 4 4 3 3 3 3 3 3 2 2 2 1 1 1 1 1 1 1 1 2 2 2 2 3 3 4 5 5 6 6 7 7 8 8 8 9
6 6 5 5 5 4 4 3 3 3 3 3 3 3 2 2 2 2 1 1 1 1 1 0 1 1 1 2 2 2 2 3 3 2 2 3 4 5 6 7 7 8 8
7 6 6 6 5 5 4 4 4 3 3 3 3 2 2 1 1 1 1 1 1 1 1 0 0 0 0 1 1 2 2 2 3 3 3 3 3 3 3 5 6 7 8
7 7 6 6 5 4 4 4 4 4 4 3 3 3 3 3 4 3 1 1 1 1 1 1 0 1 1 1 2 2 3 3 2 3 4 4 4 4 3 3 5 7 8
7 7 7 6 5 4 4 2 3 4 4 4 3 3 3 3 4 4 3 3 2 1 1 1 1 1 2 2 2 3 4 4 3 2 5 4 4 4 4 5 5 6 8
7 7 7 6 6 6 7 5 4 3 4 3 3 3 2 2 2 2 4 4 2 2 3 2 2 2 2 2 3 4 4 5 5 4 5 5 4 5 5 5 4 6 8
7 6 6 6 5 6 8 7 6 5 4 3 3 3 3 2 1 1 2 2 1 1 0 2 2 2 3 3 4 4 5 5 5 3 4 6 6 6 6 7 4 5 8
7 7 6 6 6 6 8 7 6 5 4 4 3 3 3 3 3 2 2 2 1 1 2 1 1 2 3 3 4 3 4 4 5 4 3 5 7 7 7 6 4 5 8
7 6 6 6 6 6 8 8 7 4 4 4 3 3 2 2 2 3 3 3 2 2 1 1 2 3 3 2 3 4 4 5 5 4 3 5 6 7 6 5 5 8 9
Wind_Direction
75 78 80 75 73 78 88 88 85 82 79 75 71 69 68 66 65 64 65 58 55 55 55 57 57 59 59 58 56 55 57 61 62 57 54 52 52 53 58 56 50 45 46
70 74 78 74 72 76 79 88 89 89 83 78 73 69 67 67 62 59 64 73 67 58 53 54 55 56 56 54 53 52 54 56 56 56 58 56 56 55 53 48 43 43 47
67 75 72 83 84 89 92 87 91 93 92 89 80 70 64 59 60 58 58 59 67 65 56 52 52 52 53 52 50 50 52 52 53 54 54 54 59 59 53 48 41 45 45
66 70 74 85 88 90 94 97 100 102 97 89 80 71 70 63 58 55 58 59 57 59 60 52 49 49 48 48 47 47 50 51 51 50 48 48 52 53 50 48 47 49 48
65 76 69 81 97 97 100 105 104 103 98 93 88 77 69 65 61 58 58 56 57 56 59 60 55 50 46 44 43 45 48 49 49 47 46 47 46 48 50 50 51 50 47
65 76 83 91 97 104 104 108 107 98 97 99 92 82 73 72 63 56 55 58 55 55 53 52 54 55 50 43 40 41 45 48 51 50 49 46 43 42 48 53 55 54 51
67 75 76 89 94 101 106 116 116 114 111 111 110 101 88 71 66 63 56 58 62 58 57 53 49 46 54 52 42 39 41 46 50 52 50 46 44 46 52 59 61 56 52
73 75 83 94 100 105 111 113 123 123 112 128 144 144 130 109 72 62 63 58 58 58 54 52 50 46 44 48 48 42 44 49 51 52 50 48 48 51 56 59 61 57 53
81 79 83 85 90 104 109 117 127 127 120 107 25 347 38 81 105 82 65 61 56 53 53 49 48 44 45 48 48 47 44 47 49 50 48 47 48 50 54 56 55 53 50
91 86 88 87 88 94 107 119 116 119 127 118 88 34 31 65 90 115 95 74 63 53 49 46 45 44 44 50 52 47 44 45 45 45 46 45 46 48 50 51 50 48 47
97 95 93 91 89 87 95 97 96 90 95 85 90 96 86 84 44 95 104 97 83 63 53 46 44 43 44 48 50 50 47 46 45 44 43 43 43 45 46 46 45 45 44
112 103 101 97 91 86 90 95 99 94 67 65 61 74 85 72 99 98 110 112 91 78 66 54 46 44 44 48 49 49 50 48 46 45 43 43 42 41 42 43 42 41 39
132 122 119 108 95 93 93 95 93 86 82 73 66 62 52 39 48 100 122 112 103 104 81 67 51 45 46 49 49 45 54 49 47 45 44 43 42 40 39 39 38 37 35
142 136 128 114 107 105 103 96 95 89 85 84 74 73 76 66 63 78 104 137 143 127 96 68 66 45 42 48 46 39 58 53 48 46 44 43 43 41 40 39 36 33 31
143 146 140 128 117 113 110 112 106 105 97 87 86 87 79 78 73 59 70 300 304 180 100 73 64 51 45 50 35 45 55 59 52 47 42 40 41 41 41 38 34 30 26
155 155 152 140 130 124 121 116 113 102 108 96 84 83 78 81 78 77 54 17 345 349 66 77 72 70 52 49 46 42 54 69 58 48 41 39 38 37 35 31 27 24 21
167 165 159 152 141 135 131 131 129 124 121 118 114 107 98 86 93 88 75 63 35 32 93 96 87 68 62 42 48 34 33 38 52 52 38 34 33 30 25 22 20 18 16
171 169 164 161 152 146 140 137 136 138 133 131 125 114 105 102 95 85 82 81 60 25 62 95 102 70 48 35 28 17 21 25 29 55 41 30 25 19 16 14 11 8 5
175 172 171 166 162 156 152 151 149 144 139 136 128 120 113 116 120 110 107 97 82 71 64 140 65 59 22 22 4 3 8 1 357 35 47 24 9 3 1 0 358 355 353
178 175 172 168 165 165 165 163 158 154 144 131 123 121 118 121 114 127 134 119 120 118 120 144 82 57 353 357 323 329 333 344 338 341 348 337 328 326 340 348 345 344 344
178 174 171 169 167 172 175 176 167 163 156 143 131 119 97 77 47 45 47 91 145 178 178 192 227 273 311 326 324 316 315 313 320 330 322 322 320 321 324 331 341 345 341
179 176 176 172 170 172 135 148 193 168 165 160 152 143 134 132 117 109 72 47 15 300 257 241 274 297 321 324 321 303 302 303 309 328 309 311 310 309 318 327 352 342 334
178 181 179 175 175 159 148 164 204 185 173 172 169 161 154 144 172 153 151 163 131 20 335 300 299 322 315 316 303 298 302 303 306 320 309 302 307 305 311 315 321 319 322
173 180 177 177 172 161 157 165 186 191 182 176 179 184 184 176 170 195 177 160 136 106 283 281 293 314 322 322 305 300 298 291 290 306 311 301 310 306 305 299 280 298 309
172 176 175 175 176 168 160 168 187 183 186 185 182 186 197 189 131 201 205 193 187 155 115 120 347 346 0 346 317 293 294 292 297 302 312 303 310 308 299 291 285 278 290
172 173 174 180 181 176 157 171 200 193 190 185 178 180 166 202 151 198 217 224 235 247 245 209 225 237 258 253 263 279 292 293 299 299 317 307 310 314 301 292 306 306 297
Height
1564 1563 1563 1562 1562 1562 1562 1561 1562 1561 1561 1561 1561 1561 1560 1560 1559 1558 1556 1555 1555 1554 1554 1553 1553 1552 1551 1551 1550 1549 1548 1548 1547 1547 1546 1546 1545 1545 1545 1545 1545 1545 1545
1565 1564 1564 1563 1563 1563 1563 1563 1563 1562 1562 1562 1562 1562 1562 1561 1560 1559 1557 1557 1556 1556 1555 1554 1554 1553 1553 1552 1551 1549 1548 1548 1547 1547 1546 1544 1543 1543 1544 1544 1544 1544 1544
1565 1565 1565 1564 1564 1564 1564 1564 1564 1564 1564 1564 1564 1564 1563 1563 1562 1561 1560 1559 1559 1557 1556 1555 1555 1554 1553 1552 1551 1550 1549 1548 1547 1546 1545 1544 1543 1543 1543 1544 1544 1544 1543
1566 1566 1566 1566 1565 1565 1565 1565 1566 1566 1566 1566 1566 1565 1565 1564 1564 1563 1562 1561 1560 1560 1558 1557 1556 1555 1555 1553 1552 1551 1550 1549 1548 1547 1545 1544 1543 1543 1543 1543 1543 1543 1542
1567 1567 1566 1566 1567 1567 1567 1567 1567 1568 1567 1567 1567 1567 1566 1566 1565 1565 1564 1563 1562 1561 1560 1559 1557 1556 1555 1554 1553 1552 1551 1549 1548 1547 1546 1545 1543 1542 1542 1542 1542 1542 1541
1568 1568 1567 1568 1568 1568 1568 1568 1568 1568 1568 1569 1569 1568 1568 1568 1567 1567 1566 1565 1564 1563 1562 1561 1560 1558 1556 1554 1553 1552 1551 1550 1549 1548 1546 1544 1542 1540 1540 1540 1541 1541 1541
1568 1568 1568 1568 1568 1569 1569 1570 1569 1570 1570 1570 1571 1570 1570 1570 1569 1569 1568 1567 1566 1565 1564 1563 1561 1560 1558 1555 1554 1552 1552 1551 1549 1548 1546 1544 1541 1538 1537 1538 1539 1540 1540
1569 1569 1569 1569 1569 1569 1570 1570 1570 1571 1571 1571 1572 1572 1572 1573 1571 1571 1570 1569 1568 1567 1566 1565 1563 1561 1559 1557 1555 1554 1552 1551 1550 1549 1547 1545 1541 1538 1537 1538 1539 1540 1540
1570 1570 1570 1570 1570 1571 1571 1571 1571 1571 1572 1572 1572 1573 1572 1572 1573 1573 1572 1571 1570 1569 1568 1566 1565 1563 1561 1559 1557 1555 1554 1553 1552 1550 1549 1547 1544 1542 1540 1540 1541 1541 1541
1571 1571 1571 1571 1571 1571 1571 1572 1572 1572 1572 1572 1572 1572 1573 1573 1573 1574 1574 1573 1571 1570 1569 1568 1566 1564 1563 1561 1559 1557 1556 1555 1553 1552 1550 1549 1546 1545 1544 1543 1542 1542 1541
1571 1571 1572 1572 1572 1572 1572 1572 1572 1572 1572 1573 1573 1573 1573 1573 1574 1574 1574 1574 1573 1572 1570 1569 1567 1566 1564 1563 1561 1559 1558 1557 1555 1553 1552 1550 1548 1547 1546 1544 1543 1543 1542
1572 1572 1572 1572 1573 1573 1572 1572 1572 1572 1572 1572 1573 1573 1574 1574 1574 1574 1574 1574 1574 1573 1572 1570 1569 1567 1565 1564 1563 1561 1559 1558 1556 1555 1553 1551 1549 1548 1547 1545 1544 1543 1542
1572 1572 1573 1573 1573 1573 1573 1573 1573 1573 1573 1573 1573 1573 1574 1574 1574 1574 1574 1574 1574 1574 1573 1572 1570 1569 1567 1566 1564 1562 1561 1559 1557 1556 1554 1552 1551 1549 1547 1546 1544 1543 1542
1572 1572 1573 1573 1573 1573 1573 1573 1573 1573 1573 1573 1573 1573 1573 1573 1574 1574 1574 1575 1575 1575 1574 1573 1571 1570 1568 1567 1565 1563 1562 1560 1558 1557 1555 1553 1551 1550 1548 1546 1545 1543 1542
1571 1572 1573 1573 1573 1573 1573 1573 1573 1573 1573 1573 1574 1574 1574 1573 1573 1574 1574 1574 1575 1575 1575 1573 1572 1570 1569 1567 1566 1565 1563 1561 1559 1557 1556 1554 1552 1550 1549 1547 1545 1543 1542
1571 1571 1572 1573 1573 1573 1573 1573 1573 1573 1573 1573 1573 1574 1573 1574 1573 1573 1573 1573 1574 1575 1574 1573 1572 1570 1569 1568 1566 1565 1563 1561 1559 1558 1556 1554 1552 1551 1549 1547 1545 1543 1541
1570 1571 1572 1572 1572 1573 1573 1573 1573 1573 1574 1574 1574 1574 1573 1573 1573 1573 1573 1573 1573 1573 1573 1573 1572 1571 1569 1568 1566 1565 1563 1561 1560 1557 1556 1554 1552 1550 1548 1546 1544 1542 1540
1569 1570 1571 1571 1572 1572 1572 1573 1573 1573 1573 1574 1573 1573 1573 1573 1573 1573 1573 1573 1573 1573 1573 1572 1571 1570 1569 1567 1566 1564 1563 1562 1559 1557 1555 1553 1551 1549 1547 1545 1543 1541 1539
1567 1568 1569 1570 1571 1571 1571 1572 1572 1573 1573 1573 1573 1573 1573 1573 1572 1572 1572 1572 1572 1572 1571 1571 1570 1569 1568 1567 1565 1564 1562 1561 1559 1557 1555 1553 1550 1548 1546 1544 1542 1540 1538
1566 1567 1568 1568 1569 1570 1571 1571 1572 1572 1572 1572 1572 1572 1572 1572 1572 1572 1571 1571 1571 1570 1570 1570 1569 1568 1567 1566 1564 1563 1561 1560 1558 1556 1554 1552 1550 1547 1545 1543 1540 1538 1535
1564 1565 1566 1567 1568 1569 1569 1570 1571 1571 1571 1571 1571 1571 1571 1571 1570 1570 1570 1570 1570 1569 1569 1569 1568 1567 1566 1565 1564 1562 1560 1559 1557 1555 1553 1551 1549 1547 1544 1541 1539 1536 1533
1562 1563 1564 1565 1566 1567 1568 1568 1569 1569 1570 1570 1570 1570 1570 1569 1569 1569 1568 1568 1568 1568 1568 1568 1567 1566 1565 1564 1562 1561 1559 1558 1556 1554 1551 1549 1547 1545 1542 1540 1537 1534 1531
1560 1561 1563 1564 1565 1565 1566 1567 1568 1568 1568 1569 1569 1569 1569 1568 1568 1568 1567 1567 1567 1566 1566 1566 1566 1565 1564 1562 1560 1559 1557 1556 1554 1552 1549 1547 1545 1543 1540 1537 1534 1531 1528
1557 1559 1561 1562 1563 1564 1565 1565 1566 1567 1567 1567 1567 1567 1567 1567 1566 1566 1566 1566 1565 1565 1564 1563 1563 1562 1561 1560 1558 1557 1555 1553 1552 1549 1547 1546 1543 1540 1537 1534 1531 1528 1525
1555 1557 1559 1560 1561 1562 1563 1564 1564 1565 1565 1566 1566 1565 1565 1565 1565 1564 1564 1564 1564 1563 1562 1561 1560 1559 1558 1557 1556 1554 1553 1551 1550 1548 1545 1543 1540 1537 1534 1531 1528 1525 1522
1553 1555 1557 1558 1559 1560 1561 1562 1563 1563 1564 1564 1564 1563 1563 1563 1563 1562 1562 1562 1562 1561 1560 1559 1558 1557 1556 1554 1553 1552 1550 1549 1547 1545 1542 1540 1537 1534 1531 1528 1525 1522 1518